Погода в Шомбе

Россия / Республика Карелия     65°05′55″N   33°01′26″E
темп.,
°C
ветер,
м/с
пор.,
м/с
влажн.,
%
обл.,
%
осадки,
мм/ч
давл.,
гПа
погр.,
м
18 января, пн
пн1800:00−12з369661 0.0 1009105
03:00−11з369674 0.0 1010134
06:00−9зюз379599 0.0 1009190
09:00−9з4894100 0.0 1009250
12:00−9з4991100 0.0 1010272
15:00−8з4994100 0.0 1010343
18:00−7зюз41095100 0.0 1009296
21:00−8зюз41094100 0.0 1009281
19 января, вт
вт1900:00−10зюз41095100 0.0 1008266
03:00−10зюз499599 0.1 1008261
06:00−11зюз4996100 0.0 1008258
09:00−12з499696 0.1 1008236
12:00−12з499577 0.0 1008244
15:00−12з389579 0.0 1008225
18:00−13з369662 0.0 1008120
21:00−14зсз239638 0.0 100936
20 января, ср
ср2000:00−14ссз229742 0.0 101020
03:00−15с129563 0.0 101220
06:00−15ссв229180 0.0 101220
09:00−16ссв229068 0.0 101320
12:00−15с229399 0.0 101321
15:00−15ссв229699 0.0 101423
18:00−17св229885 0.0 101420
21:00−16св229889 0.0 101425
21 января, чт
чт2100:00−14всв2697100 0.1 1013183
03:00−14св3697100 0.1 1013171
06:00−15всв379897 0.1 1012145
09:00−16в399796 0.1 1011294
12:00−15в41195100 0.1 1011586
15:00−15в41292100 0.1 1011619
18:00−16в51393100 0.1 1011632
21:00−16в51293100 0.1 1011653
22 января, пт
пт2200:00−17в51394100 0.1 1011600
03:00−18в51292100 0.1 1012618
06:00−18в51391100 0.0 1012625
09:00−18в61390100 0.1 1012619
12:00−19в61392100 0.0 1012511
15:00−19в61292100 0.1 1012495
18:00−19в61395100 0.3 1012473
21:00−20в61296100 0.9 1012473